Probability
0 0 0 0 0 0 0 0 0 0 0 0 0 0 0 0 0 0 0 0 0 0 0 0 0 0 0 0 0 0 0 0 0 0 0 0 0 0 0 0 0 0 0
0 0 0 0 0 0 0 0 0 0 0 0 0 0 0 0 0 0 0 0 0 0 0 0 0 0 0 0 0 0 0 0 0 0 0 0 0 0 0 0 0 0 0
0 0 0 0 0 0 0 0 0 0 0 0 0 0 0 0 0 0 0 0 0 0 0 0 0 0 0 0 0 0 0 0 0 0 0 0 0 0 0 0 0 0 0
0 0 0 0 0 0 0 0 0 0 0 0 0 0 0 0 0 0 0 0 0 0 0 0 0 0 0 0 0 0 0 0 0 0 0 0 0 0 0 0 0 0 0
0 0 0 0 0 0 0 0 0 0 0 0 0 0 0 0 0 0 0 0 0 0 0 0 0 0 0 0 0 0 0 0 0 0 0 0 0 0 0 0 0 0 0
0 0 0 0 0 0 0 0 0 0 0 0 0 0 0 0 0 0 0 0 0 0 0 0 0 0 0 0 0 0 0 0 0 0 0 0 0 0 0 0 0 0 0
0 0 0 0 0 0 0 0 0 0 0 0 0 0 0 0 0 0 0 0 0 0 0 0 0 0 0 0 0 0 0 0 0 0 0 0 0 0 0 0 0 0 0
0 0 0 0 0 0 0 0 0 0 0 0 0 0 0 0 0 0 0 0 0 0 0 0 0 0 0 0 0 0 0 0 0 0 0 0 0 0 0 0 0 0 0
0 0 0 0 0 0 0 0 0 0 0 0 0 0 0 0 0 0 0 0 0 0 0 0 0 0 0 0 0 0 0 0 0 0 0 0 0 0 0 0 0 0 0
0 0 0 0 0 0 0 0 0 0 0 0 0 0 0 0 0 0 0 0 0 0 0 0 0 0 0 0 0 0 0 0 0 0 0 0 0 0 0 0 0 0 0
0 0 0 0 0 0 0 0 0 0 0 0 0 0 0 0 0 0 0 0 0 0 0 0 0 0 0 0 0 0 0 0 0 0 0 0 0 0 0 0 0 0 0
0 0 0 0 0 0 0 0 0 0 0 0 0 0 0 0 0 0 0 0 0 0 0 0 0 0 0 0 0 0 0 0 0 0 0 0 0 0 0 0 0 0 0
0 0 0 0 0 0 0 0 0 0 0 0 0 0 0 0 0 0 0 0 0 0 0 0 0 0 0 0 0 0 0 0 0 0 0 0 0 0 0 0 0 0 0
0 0 0 0 0 0 0 0 0 0 0 0 0 0 0 0 0 0 0 0 0 0 0 0 0 0 0 0 0 0 0 0 0 0 0 0 0 0 0 0 0 0 0
0 0 0 0 0 0 0 0 0 0 0 0 0 0 0 0 0 0 0 0 0 0 0 0 0 0 0 0 0 0 0 0 0 0 0 0 0 0 0 0 0 0 0
0 0 0 0 0 0 0 0 0 0 0 0 0 0 0 0 0 0 0 0 0 0 0 0 0 0 0 0 0 0 0 0 0 0 0 0 0 1 1 0 0 0 0
0 1 1 1 0 0 0 0 0 0 0 0 0 0 0 0 0 0 0 0 0 0 0 0 0 0 0 0 0 0 0 0 0 0 0 0 0 1 1 1 0 0 0
1 1 2 2 1 0 0 0 0 0 0 0 0 0 0 0 0 0 0 0 0 0 0 0 0 0 0 0 0 0 0 0 0 0 0 0 0 1 1 1 0 0 0
0 1 3 3 1 0 0 0 0 0 0 0 0 0 0 0 0 0 0 0 0 0 0 0 0 0 0 0 0 0 0 0 0 0 0 0 0 0 0 0 0 0 0
0 1 3 4 3 1 0 0 0 0 0 0 0 0 0 0 0 0 0 0 0 0 0 0 0 0 0 0 0 0 0 0 0 0 0 0 0 0 0 0 0 0 0
2 3 6 9 9 6 2 0 0 0 0 0 0 0 0 0 0 0 0 0 0 0 0 0 0 0 0 0 0 0 0 0 0 0 0 0 0 0 0 0 0 0 0
7 11 18 23 24 17 7 2 0 0 0 0 0 0 0 0 0 0 0 0 0 0 0 0 0 0 0 0 0 0 0 0 0 0 0 0 0 0 0 0 0 0 0
14 23 40 49 44 32 16 5 1 0 0 0 0 0 0 0 0 0 0 0 0 0 0 0 0 0 0 0 0 0 0 0 0 0 0 0 0 0 0 0 0 0 0
26 39 61 70 60 43 25 11 3 1 0 0 0 0 0 0 0 0 0 0 0 0 0 0 0 0 0 0 0 0 0 0 0 0 0 0 0 0 0 0 0 0 0
43 55 68 71 60 44 26 12 4 1 0 0 0 0 0 0 0 0 0 0 0 0 0 0 0 0 0 0 0 0 0 0 0 0 0 0 0 0 0 0 0 0 0
55 61 65 62 53 39 24 10 3 1 0 0 0 0 0 0 0 0 0 0 0 0 0 0 0 0 0 0 0 0 0 0 0 0 0 0 0 0 0 0 0 0 0
Wind_Speed
4 5 11 12 11 11 12 13 13 13 13 13 13 14 13 12 12 11 10 10 9 9 9 9 9 8 8 8 8 8 8 8 9 8 8 7 7 6 7 7 6 3 5
8 7 13 12 11 11 11 12 12 13 13 13 13 13 13 12 11 11 10 10 9 9 9 8 8 8 8 8 8 8 8 8 8 7 7 6 7 7 8 7 7 4 6
11 8 11 13 12 11 11 11 12 12 12 13 13 13 13 12 11 10 10 10 9 9 8 8 8 8 8 7 7 7 6 6 6 6 6 3 3 7 7 7 7 7 8
12 8 9 14 13 12 11 11 12 12 12 13 13 13 12 11 10 10 10 9 9 9 8 8 8 8 8 7 7 6 5 4 4 5 3 2 2 6 6 7 7 7 8
10 7 9 14 13 12 11 11 12 12 13 13 13 12 11 11 10 9 9 9 9 8 8 8 7 7 7 7 6 5 4 3 4 5 3 2 2 4 6 6 6 6 7
9 7 9 14 13 12 11 11 12 12 13 13 12 12 11 10 9 8 8 8 8 8 8 7 7 7 7 7 6 5 5 7 7 4 3 3 2 4 5 6 6 6 7
8 7 8 14 13 12 12 12 12 12 12 12 12 12 11 10 9 8 7 7 7 6 6 6 7 7 7 7 6 5 7 8 5 4 3 2 1 4 5 5 6 6 7
9 8 7 14 13 13 12 12 12 12 12 12 12 11 11 10 9 8 7 6 6 5 5 5 6 7 7 7 6 6 7 6 5 4 3 2 2 4 5 5 5 6 7
7 7 6 6 9 12 13 12 12 12 12 11 11 11 11 10 9 8 7 5 5 4 3 3 4 6 6 6 5 4 5 6 4 2 3 1 2 4 4 5 5 6 6
6 6 6 5 5 6 7 12 12 12 12 11 11 11 11 10 9 8 6 5 4 3 3 3 4 5 6 6 5 4 5 6 4 3 2 1 3 4 5 5 5 6 6
6 5 5 5 5 5 5 8 10 11 11 10 9 11 8 4 4 4 5 5 4 3 3 3 4 5 7 6 5 5 6 2 3 2 2 2 3 4 5 5 5 6 6
8 7 5 6 6 5 6 4 4 4 5 5 4 5 4 3 3 3 4 6 5 3 2 2 4 6 5 3 4 5 3 3 2 2 1 0 2 3 4 4 5 5 6
8 8 7 6 6 6 4 4 3 3 3 4 5 5 4 3 2 2 1 1 1 2 3 4 4 3 3 2 2 3 3 2 2 2 3 2 2 3 4 4 4 4 5
7 8 8 8 6 6 4 4 4 3 3 3 4 5 4 3 2 2 1 1 1 1 1 1 1 1 2 2 3 3 3 2 1 1 3 2 1 3 4 4 4 4 4
9 9 9 9 8 6 5 4 5 4 4 4 4 4 5 3 3 3 2 2 2 1 1 0 1 0 2 3 2 3 2 2 2 2 2 3 1 1 3 4 4 3 4
10 10 9 10 9 8 6 5 5 5 5 4 4 5 5 4 3 3 3 2 2 2 2 1 1 1 2 3 3 3 2 2 2 2 2 3 4 3 3 3 4 4 4
11 10 11 11 10 10 8 7 5 5 5 5 4 5 5 4 4 4 3 3 3 3 2 1 2 2 3 3 4 3 2 2 2 2 2 2 3 4 5 5 5 5 5
9 10 11 11 11 11 9 7 5 5 5 5 4 5 6 6 5 4 3 3 3 3 2 2 2 2 2 3 3 2 2 2 2 2 3 3 3 3 4 6 6 6 6
11 11 12 11 12 12 9 7 5 5 5 5 5 5 6 7 6 5 4 3 3 3 3 3 2 2 2 3 3 2 1 1 1 1 2 3 3 4 3 5 8 7 6
12 12 12 11 10 10 7 5 3 3 4 4 4 5 6 6 7 6 4 4 3 2 2 3 3 2 2 3 3 2 1 0 0 0 1 1 2 3 3 3 4 4 7
13 13 13 12 10 9 6 5 4 4 3 3 4 5 6 6 7 6 5 4 4 3 3 4 3 3 2 2 3 2 2 1 1 1 0 0 0 1 2 2 2 2 2
16 16 14 13 11 10 7 5 3 3 2 2 2 4 5 6 6 7 6 5 5 4 4 4 3 3 2 3 3 3 1 2 2 1 1 2 2 0 1 1 1 1 1
13 14 11 11 10 8 7 4 3 3 2 2 2 3 4 5 5 5 6 6 5 6 5 6 6 6 4 2 1 4 4 4 2 2 2 2 2 2 2 2 2 2 1
8 7 8 9 9 8 8 5 4 4 3 4 3 2 3 4 4 4 5 5 6 5 6 7 6 5 5 4 2 1 1 3 3 1 2 2 2 3 4 3 3 3 3
5 7 9 11 10 9 6 3 2 2 2 2 2 3 3 3 4 4 5 5 5 5 6 6 6 7 5 5 4 3 1 1 1 2 2 2 2 3 3 4 3 4 4
8 9 10 11 10 9 6 2 3 3 3 4 3 3 2 2 2 3 4 4 4 4 5 6 6 8 7 6 5 4 4 3 3 3 3 2 2 2 3 3 4 5 4
Wind_Direction
168 178 163 150 145 143 143 142 139 135 131 128 126 124 121 118 115 113 111 109 110 111 113 114 110 106 103 102 107 118 129 133 131 128 123 117 110 111 112 109 95 83 96
152 165 159 153 149 146 144 143 142 140 136 132 129 127 123 120 118 116 113 111 109 109 110 113 112 110 106 104 107 113 121 126 129 126 116 107 103 105 106 100 94 87 91
146 159 157 156 153 149 146 144 144 143 140 136 132 129 126 123 120 119 118 115 113 113 113 114 115 114 111 106 104 108 115 124 129 127 105 79 90 102 102 98 93 89 92
150 154 155 158 155 152 150 148 146 145 143 140 136 133 130 128 125 123 121 119 116 115 114 113 113 113 110 103 99 99 103 120 143 130 105 87 80 108 105 102 96 95 96
150 149 161 160 158 156 154 151 149 148 146 143 140 138 136 132 128 124 123 121 117 114 108 105 105 106 104 99 93 90 94 101 106 100 103 95 70 118 114 111 106 112 109
149 150 167 164 162 161 158 155 152 151 149 147 145 142 138 135 131 128 127 126 122 115 107 99 95 94 91 83 73 72 84 82 73 73 85 97 93 129 121 121 123 133 128
151 156 173 168 167 166 162 158 155 154 153 152 150 147 144 141 138 136 135 134 130 122 110 97 88 83 76 64 55 74 97 89 79 72 73 84 112 140 133 134 138 140 137
157 159 170 173 172 171 167 164 161 158 157 157 156 154 150 148 145 145 146 144 141 134 118 97 79 71 63 53 51 76 100 92 84 72 66 62 158 144 142 141 140 140 140
158 160 166 169 172 174 173 170 166 164 163 162 160 158 156 153 151 153 155 156 153 146 130 100 75 63 54 46 45 69 102 96 82 63 64 41 137 141 141 138 134 139 143
160 165 164 163 163 164 170 175 172 170 168 166 165 163 162 159 157 159 160 166 162 156 136 98 72 60 54 47 47 73 110 93 75 61 42 57 109 118 120 122 127 134 140
175 173 166 165 161 156 163 179 174 172 172 169 168 170 161 141 140 148 163 175 172 160 130 91 69 64 61 41 43 88 93 77 76 56 24 79 105 111 114 116 123 129 138
187 183 173 170 163 159 171 162 155 158 159 152 149 149 131 132 144 150 186 183 179 161 115 76 57 62 63 39 46 78 74 73 54 23 330 205 124 121 118 121 124 129 138
188 185 180 175 167 165 161 149 147 142 142 143 147 143 139 137 141 135 122 157 78 87 57 38 45 54 61 57 63 74 78 64 35 360 321 267 167 147 139 134 139 143 148
179 187 181 178 171 173 163 159 156 152 153 156 158 154 149 152 161 155 153 137 92 74 64 33 39 69 99 91 88 86 73 57 29 357 320 311 195 172 157 149 152 167 168
191 190 182 177 175 172 167 169 169 167 167 165 163 166 166 169 178 173 166 162 153 137 138 346 344 113 142 135 120 106 84 62 36 14 344 0 46 131 149 150 146 155 169
198 194 184 180 178 173 176 178 177 175 169 166 172 177 179 181 183 179 179 181 182 177 184 192 173 153 151 141 132 118 96 74 48 34 17 12 37 69 98 120 127 122 119
200 194 188 185 179 179 182 186 183 179 170 176 180 182 186 191 194 187 188 197 191 173 172 147 113 109 123 126 128 127 116 95 74 50 38 31 25 48 78 90 96 104 107
198 195 195 192 184 186 187 186 182 177 176 181 180 182 191 197 198 193 201 212 181 158 156 144 126 108 118 130 136 141 135 129 98 66 48 42 36 33 52 76 82 90 96
200 196 195 195 186 188 186 183 184 178 184 182 179 185 196 200 198 196 210 216 171 156 161 162 142 138 147 147 142 129 145 162 145 92 59 45 42 41 35 53 62 64 77
203 197 195 196 188 181 172 164 168 185 193 185 184 190 193 200 199 197 207 215 179 167 174 165 151 139 140 145 122 86 40 293 232 117 84 52 44 42 41 40 37 41 56
205 200 195 192 184 170 165 169 174 195 194 196 197 190 190 195 196 195 202 199 187 191 193 172 144 148 136 130 100 61 10 4 254 236 201 147 63 37 42 34 22 19 20
208 203 196 191 182 177 178 165 153 150 173 185 186 188 187 186 188 195 192 191 186 187 188 178 158 151 158 160 138 123 36 332 309 234 212 208 210 218 254 263 340 353 10
212 203 191 182 171 163 146 123 100 92 88 127 184 195 193 186 187 190 190 186 185 184 191 187 178 172 172 190 185 151 158 213 267 299 251 220 199 204 234 246 238 247 262
201 178 158 143 134 128 125 139 167 175 187 197 185 182 176 182 186 191 189 188 187 188 191 191 183 177 165 178 190 151 147 151 161 256 302 259 214 215 222 229 227 225 228
129 119 115 111 110 108 107 143 193 192 177 146 145 155 162 175 188 191 191 190 193 195 198 190 181 183 182 180 173 155 133 92 147 160 239 281 274 236 217 219 222 220 219
87 98 105 105 102 99 103 140 205 195 179 163 158 156 156 166 182 190 188 192 198 198 199 195 190 191 193 189 183 170 166 176 190 174 181 224 250 261 230 217 216 216 211